Location: Newark
(44.6768°N, 22.5302°E)
Time: 02:08:18
(UTC+00:00)

Max Valier Satellite - Pass Details

Date: 05 July 2022
Orbit: 474 x 491 km, 97.2° (Epoch: 07 August)

Event Time Altitude Azimuth Distance (km) Brightness Sun altitude
Rises 19:20:24 0° 212° (SSW) 2,554 ? -9.4°
Reaches altitude 10° 19:23:27 10° 241° (WSW) 1,684 ? -9.7°
Maximum altitude 19:25:10 13° 270° (W) 1,513 ? -9.9°
Drops below altitude 10° 19:26:54 10° 298° (WNW) 1,694 ? -10.2°
Sets 19:30:00 0° 327° (NNW) 2,585 ? -10.5°
